Weather History for Lee's Summit, MO

Change the Weather History Date:

Sunday, January 19, 2014

  Actual Average (KMKC) Record (KMKC)
Temperature  
Mean Temperature 39 °F -  
Max Temperature 59 °F 37 °F 66 °F (2015)
Min Temperature 19 °F 21 °F 1 °F (2008)
Degree Days  
Heating Degree Days 26    
Moisture  
Dew Point 20 °F    
Average Humidity 50    
Maximum Humidity 81    
Minimum Humidity 24    
Precipitation  
Precipitation 0.00 in - - ()
Sea Level Pressure  
Sea Level Pressure 29.94 in    
Wind  
Wind Speed 10 mph (SW)    
Max Wind Speed 22 mph    
Max Gust Speed 31 mph    
Visibility 10 miles    
Events      
Averages and records for this station are not official NWS values.
T = Trace of Precipitation, MM = Missing Value Source: NWS Daily Summary

Daily Weather History Graph

Daily Weather History Graph

Search for Another Location

Airport:

Trip Planner

Search our weather history database for the weather conditions in past years. The results will help you decide how hot, cold, wet, or windy it might be!

Date:

Astronomy

Jan. 19, 2014 Rise Set
Actual Time 7:32 AM CST 5:23 PM CST
Civil Twilight 7:03 AM CST 5:52 PM CST
Nautical Twilight 6:31 AM CST 6:25 PM CST
Astronomical Twilight 5:59 AM CST 6:57 PM CST
Moon 9:00 PM CST (1/19) 9:05 AM CST (1/19)
Length of Visible Light 10h 48m
Length of Day
9h 50m
Waning Gibbous, 89% of the Moon is Illuminated
Jan 19
Waning Gibbous
Jan 23
Last Quarter
Jan 30
New
Feb 6
First Quarter
Feb 14
Full

Hourly Weather History & Observations

Time (CST) Temp. Windchill Dew Point Humidity Pressure Visibility Wind Dir Wind Speed Gust Speed Precip Events Conditions
12:53 AM 21.0 °F 14.6 °F 12.9 °F 71% 30.13 in 10.0 mi WSW 4.6 mph - N/A   Clear
1:53 AM 21.0 °F - 14.0 °F 74% 30.12 in 10.0 mi Calm Calm - N/A   Clear
2:53 AM 19.9 °F 10.1 °F 15.1 °F 81% 30.11 in 10.0 mi SW 8.1 mph - N/A   Clear
3:53 AM 19.9 °F 7.9 °F 15.1 °F 81% 30.08 in 10.0 mi SW 11.5 mph - N/A   Clear
4:53 AM 21.0 °F 13.4 °F 15.1 °F 78% 30.06 in 10.0 mi SSW 5.8 mph - N/A   Clear
5:53 AM 21.9 °F 12.5 °F 16.0 °F 78% 30.04 in 10.0 mi SSW 8.1 mph - N/A   Clear
6:53 AM 21.9 °F 11.7 °F 16.0 °F 78% 30.06 in 10.0 mi SSW 9.2 mph - N/A   Clear
7:53 AM 25.0 °F 14.8 °F 19.0 °F 78% 30.05 in 10.0 mi SSW 10.4 mph - N/A   Clear
8:53 AM 30.0 °F 18.3 °F 21.9 °F 72% 30.03 in 10.0 mi SW 17.3 mph - N/A   Clear
9:53 AM 37.9 °F 28.5 °F 24.1 °F 57% 30.01 in 10.0 mi SW 17.3 mph 24.2 mph N/A   Clear
10:53 AM 46.0 °F 39.6 °F 23.0 °F 40% 29.98 in 10.0 mi SW 15.0 mph 25.3 mph N/A   Clear
11:53 AM 52.0 °F - 21.9 °F 31% 29.91 in 10.0 mi SW 17.3 mph 26.5 mph N/A   Clear
12:53 PM 54.0 °F - 21.9 °F 29% 29.89 in 10.0 mi SW 21.9 mph 31.1 mph N/A   Clear
1:53 PM 57.9 °F - 21.9 °F 25% 29.84 in 10.0 mi WSW 19.6 mph - N/A   Clear
2:53 PM 59.0 °F - 23.0 °F 25% 29.82 in 10.0 mi SW 20.7 mph 28.8 mph N/A   Clear
3:53 PM 59.0 °F - 21.9 °F 24% 29.81 in 10.0 mi SW 18.4 mph 25.3 mph N/A   Clear
4:53 PM 57.0 °F - 21.9 °F 26% 29.81 in 10.0 mi SW 13.8 mph - N/A   Clear
5:53 PM 52.0 °F - 21.9 °F 31% 29.82 in 10.0 mi SSW 10.4 mph - N/A   Clear
6:53 PM 53.1 °F - 21.9 °F 30% 29.83 in 10.0 mi SW 15.0 mph - N/A   Clear
7:53 PM 51.1 °F - 23.0 °F 33% 29.84 in 10.0 mi SW 12.7 mph - N/A   Clear
8:53 PM 50.0 °F - 23.0 °F 35% 29.85 in 10.0 mi SW 10.4 mph - N/A   Clear
9:53 PM 48.9 °F - 23.0 °F 36% 29.84 in 10.0 mi SW 10.4 mph - N/A   Clear
10:53 PM 48.0 °F - 21.9 °F 36% 29.86 in 10.0 mi West 9.2 mph - N/A   Clear
11:53 PM 46.0 °F 41.9 °F 21.9 °F 39% 29.87 in 10.0 mi West 8.1 mph - N/A   Clear